2019-092T15:17:16.440,   1,   5,   1,    30,   4,       4096,     12.975,  47481.658,    49.089,    -6.464,     1.126,   208.864, 3, 2.400E+01,  1.50,  78,  1.257E-02,  1.147E-01, -9.999E+09, -9.999E+09, -9.999E+09, -9.999E+09, -9.999E+09, -9.999E+09, -9.999E+09, -9.999E+09, -9.999E+09, -9.999E+09, -9.999E+09, -9.999E+09, -9.999E+09, -9.999E+09, -9.999E+09, -9.999E+09, 255
2019-092T15:20:16.442,   1,   5,   1,    30,   4,       4096,     12.975,  47481.658,    49.073,    -6.460,     1.126,   207.050, 3, 2.400E+01,  1.50,  78,  1.735E-02,  1.147E-01, -9.999E+09, -9.999E+09, -9.999E+09, -9.999E+09, -9.999E+09, -9.999E+09, -9.999E+09, -9.999E+09, -9.999E+09, -9.999E+09, -9.999E+09, -9.999E+09, -9.999E+09, -9.999E+09, -9.999E+09, -9.999E+09, 255
2019-092T15:21:46.443,   1,   5,   1,    30,   4,       4096,     12.975,  47481.658,    49.065,    -6.458,     1.126,   206.143, 3, 2.400E+01,  1.50,  78,  1.493E-02,  1.147E-01, -9.999E+09, -9.999E+09, -9.999E+09, -9.999E+09, -9.999E+09, -9.999E+09, -9.999E+09, -9.999E+09, -9.999E+09, -9.999E+09, -9.999E+09, -9.999E+09, -9.999E+09, -9.999E+09, -9.999E+09, -9.999E+09, 255
2019-092T15:24:46.445,   1,   5,   1,    30,   4,       4096,     12.975,  47481.658,    49.049,    -6.455,     1.126,   204.328, 3, 2.400E+01,  1.50,  78,  1.509E-02,  1.147E-01, -9.999E+09, -9.999E+09, -9.999E+09, -9.999E+09, -9.999E+09, -9.999E+09, -9.999E+09, -9.999E+09, -9.999E+09, -9.999E+09, -9.999E+09, -9.999E+09, -9.999E+09, -9.999E+09, -9.999E+09, -9.999E+09, 255
2019-092T15:37:16.454,   1,   5,   1,    30,   4,       4096,     12.975,  47481.658,    48.983,    -6.440,     1.126,   196.769, 3, 2.400E+01,  1.50,  78,  1.148E-02,  1.147E-01, -9.999E+09, -9.999E+09, -9.999E+09, -9.999E+09, -9.999E+09, -9.999E+09, -9.999E+09, -9.999E+09, -9.999E+09, -9.999E+09, -9.999E+09, -9.999E+09, -9.999E+09, -9.999E+09, -9.999E+09, -9.999E+09, 255
2019-092T15:39:16.455,   1,   5,   1,    30,   4,       4096,     12.975,  47481.658,    48.973,    -6.437,     1.126,   195.559, 3, 2.400E+01,  1.50,  78,  1.234E-02,  1.147E-01, -9.999E+09, -9.999E+09, -9.999E+09, -9.999E+09, -9.999E+09, -9.999E+09, -9.999E+09, -9.999E+09, -9.999E+09, -9.999E+09, -9.999E+09, -9.999E+09, -9.999E+09, -9.999E+09, -9.999E+09, -9.999E+09, 255
2019-092T15:40:46.456,   1,   5,   1,    30,   4,       4096,     12.975,  47481.658,    48.965,    -6.436,     1.126,   194.652, 3, 2.400E+01,  1.50,  78,  1.323E-02,  1.147E-01, -9.999E+09, -9.999E+09, -9.999E+09, -9.999E+09, -9.999E+09, -9.999E+09, -9.999E+09, -9.999E+09, -9.999E+09, -9.999E+09, -9.999E+09, -9.999E+09, -9.999E+09, -9.999E+09, -9.999E+09, -9.999E+09, 255
2019-092T15:42:16.457,   1,   5,   1,    30,   4,       4096,     12.975,  47481.658,    48.957,    -6.434,     1.126,   193.745, 3, 2.400E+01,  1.50,  78,  1.744E-02,  1.147E-01, -9.999E+09, -9.999E+09, -9.999E+09, -9.999E+09, -9.999E+09, -9.999E+09, -9.999E+09, -9.999E+09, -9.999E+09, -9.999E+09, -9.999E+09, -9.999E+09, -9.999E+09, -9.999E+09, -9.999E+09, -9.999E+09, 255
2019-092T15:42:46.458,   1,   5,   1,    30,   4,       4096,     12.975,  47481.658,    48.954,    -6.433,     1.126,   193.442, 3, 2.400E+01,  1.50,  78,  2.298E-02,  1.147E-01, -9.999E+09, -9.999E+09, -9.999E+09, -9.999E+09, -9.999E+09, -9.999E+09, -9.999E+09, -9.999E+09, -9.999E+09, -9.999E+09, -9.999E+09, -9.999E+09, -9.999E+09, -9.999E+09, -9.999E+09, -9.999E+09, 255
2019-092T15:43:16.458,   1,   5,   1,    30,   4,       4096,     12.975,  47481.658,    48.952,    -6.433,     1.126,   193.140, 3, 2.400E+01,  1.50,  78,  2.382E-02,  1.147E-01, -9.999E+09, -9.999E+09, -9.999E+09, -9.999E+09, -9.999E+09, -9.999E+09, -9.999E+09, -9.999E+09, -9.999E+09, -9.999E+09, -9.999E+09, -9.999E+09, -9.999E+09, -9.999E+09, -9.999E+09, -9.999E+09, 255
2019-092T15:43:46.458,   1,   5,   1,    30,   4,       4096,     12.975,  47481.658,    48.949,    -6.432,     1.126,   192.838, 3, 2.400E+01,  1.50,  78,  1.849E-02,  1.147E-01, -9.999E+09, -9.999E+09, -9.999E+09, -9.999E+09, -9.999E+09, -9.999E+09, -9.999E+09, -9.999E+09, -9.999E+09, -9.999E+09, -9.999E+09, -9.999E+09, -9.999E+09, -9.999E+09, -9.999E+09, -9.999E+09, 255
2019-092T15:44:16.459,   1,   5,   1,    30,   4,       4096,     12.975,  47481.658,    48.946,    -6.431,     1.126,   192.535, 3, 2.400E+01,  1.50,  78,  2.364E-02,  1.147E-01, -9.999E+09, -9.999E+09, -9.999E+09, -9.999E+09, -9.999E+09, -9.999E+09, -9.999E+09, -9.999E+09, -9.999E+09, -9.999E+09, -9.999E+09, -9.999E+09, -9.999E+09, -9.999E+09, -9.999E+09, -9.999E+09, 255
2019-092T15:44:46.459,   1,   5,   1,    30,   4,       4096,     12.975,  47481.658,    48.944,    -6.431,     1.126,   192.233, 3, 2.400E+01,  1.50,  78,  3.766E-02,  1.147E-01, -9.999E+09, -9.999E+09, -9.999E+09, -9.999E+09, -9.999E+09, -9.999E+09, -9.999E+09, -9.999E+09, -9.999E+09, -9.999E+09, -9.999E+09, -9.999E+09, -9.999E+09, -9.999E+09, -9.999E+09, -9.999E+09, 255
2019-092T15:45:16.459,   1,   5,   1,    30,   4,       4096,     12.975,  47481.658,    48.941,    -6.430,     1.126,   191.930, 3, 2.400E+01,  1.50,  78,  3.549E-02,  1.147E-01, -9.999E+09, -9.999E+09, -9.999E+09, -9.999E+09, -9.999E+09, -9.999E+09, -9.999E+09, -9.999E+09, -9.999E+09, -9.999E+09, -9.999E+09, -9.999E+09, -9.999E+09, -9.999E+09, -9.999E+09, -9.999E+09, 255
2019-092T15:45:46.460,   1,   5,   1,    30,   4,       4096,     12.975,  47481.658,    48.938,    -6.430,     1.126,   191.628, 3, 2.400E+01,  1.50,  78,  7.076E-02,  1.147E-01, -9.999E+09, -9.999E+09, -9.999E+09, -9.999E+09, -9.999E+09, -9.999E+09, -9.999E+09, -9.999E+09, -9.999E+09, -9.999E+09, -9.999E+09, -9.999E+09, -9.999E+09, -9.999E+09, -9.999E+09, -9.999E+09, 255
2019-092T15:46:16.460,   1,   5,   1,    30,   4,       4096,     12.975,  47481.658,    48.936,    -6.429,     1.126,   191.326, 3, 2.400E+01,  1.50,  78,  7.569E-02,  1.147E-01, -9.999E+09, -9.999E+09, -9.999E+09, -9.999E+09, -9.999E+09, -9.999E+09, -9.999E+09, -9.999E+09, -9.999E+09, -9.999E+09, -9.999E+09, -9.999E+09, -9.999E+09, -9.999E+09, -9.999E+09, -9.999E+09, 255
2019-092T15:46:46.461,   1,   5,   1,    30,   4,       4096,     12.975,  47481.658,    48.933,    -6.428,     1.126,   191.023, 3, 2.400E+01,  1.50,  78,  7.819E-02,  1.147E-01, -9.999E+09, -9.999E+09, -9.999E+09, -9.999E+09, -9.999E+09, -9.999E+09, -9.999E+09, -9.999E+09, -9.999E+09, -9.999E+09, -9.999E+09, -9.999E+09, -9.999E+09, -9.999E+09, -9.999E+09, -9.999E+09, 255
2019-092T15:47:16.461,   1,   5,   1,    30,   4,       4096,     12.975,  47481.658,    48.931,    -6.428,     1.126,   190.721, 3, 2.400E+01,  1.50,  78,  1.376E-01,  1.148E-01, -9.999E+09, -9.999E+09, -9.999E+09, -9.999E+09, -9.999E+09, -9.999E+09, -9.999E+09, -9.999E+09, -9.999E+09, -9.999E+09, -9.999E+09, -9.999E+09, -9.999E+09, -9.999E+09, -9.999E+09, -9.999E+09, 255
2019-092T15:47:46.461,   1,   5,   1,    30,   4,       4096,     12.975,  47481.658,    48.928,    -6.427,     1.126,   190.419, 3, 2.400E+01,  1.50,  78,  2.363E-01,  1.149E-01, -9.999E+09, -9.999E+09, -9.999E+09, -9.999E+09, -9.999E+09, -9.999E+09, -9.999E+09, -9.999E+09, -9.999E+09, -9.999E+09, -9.999E+09, -9.999E+09, -9.999E+09, -9.999E+09, -9.999E+09, -9.999E+09, 255
2019-092T15:48:16.462,   1,   5,   1,    30,   4,       4096,     12.975,  47481.658,    48.925,    -6.427,     1.126,   190.116, 3, 2.400E+01,  1.50,  78,  7.313E-01,  1.156E-01, -9.999E+09, -9.999E+09, -9.999E+09, -9.999E+09, -9.999E+09, -9.999E+09, -9.999E+09, -9.999E+09, -9.999E+09, -9.999E+09, -9.999E+09, -9.999E+09, -9.999E+09, -9.999E+09, -9.999E+09, -9.999E+09, 255
2019-092T15:48:46.462,   1,   5,   1,    30,   4,       4096,     12.975,  47481.658,    48.923,    -6.426,     1.126,   189.814, 3, 2.400E+01,  1.50,  78,  1.136E+00,  1.163E-01, -9.999E+09, -9.999E+09, -9.999E+09, -9.999E+09, -9.999E+09, -9.999E+09, -9.999E+09, -9.999E+09, -9.999E+09, -9.999E+09, -9.999E+09, -9.999E+09, -9.999E+09, -9.999E+09, -9.999E+09, -9.999E+09, 255
2019-092T15:49:16.462,   1,   5,   1,    30,   4,       4096,     12.975,  47481.658,    48.920,    -6.425,     1.126,   189.511, 3, 2.400E+01,  1.50,  78,  1.347E+00,  1.167E-01, -9.999E+09, -9.999E+09, -9.999E+09, -9.999E+09, -9.999E+09, -9.999E+09, -9.999E+09, -9.999E+09, -9.999E+09, -9.999E+09, -9.999E+09, -9.999E+09, -9.999E+09, -9.999E+09, -9.999E+09, -9.999E+09, 255
2019-092T15:49:46.463,   1,   5,   1,    30,   4,       4096,     12.975,  47481.658,    48.917,    -6.425,     1.126,   189.209, 3, 2.400E+01,  1.50,  78,  4.049E-01,  1.151E-01, -9.999E+09, -9.999E+09, -9.999E+09, -9.999E+09, -9.999E+09, -9.999E+09, -9.999E+09, -9.999E+09, -9.999E+09, -9.999E+09, -9.999E+09, -9.999E+09, -9.999E+09, -9.999E+09, -9.999E+09, -9.999E+09, 255
2019-092T15:50:16.463,   1,   5,   1,    30,   4,       4096,     12.975,  47481.658,    48.915,    -6.424,     1.126,   188.907, 3, 2.400E+01,  1.50,  78,  2.385E-01,  1.149E-01, -9.999E+09, -9.999E+09, -9.999E+09, -9.999E+09, -9.999E+09, -9.999E+09, -9.999E+09, -9.999E+09, -9.999E+09, -9.999E+09, -9.999E+09, -9.999E+09, -9.999E+09, -9.999E+09, -9.999E+09, -9.999E+09, 255
2019-092T15:50:46.463,   1,   5,   1,    30,   4,       4096,     12.975,  47481.658,    48.912,    -6.424,     1.126,   188.604, 3, 2.400E+01,  1.50,  78,  2.846E-01,  1.149E-01, -9.999E+09, -9.999E+09, -9.999E+09, -9.999E+09, -9.999E+09, -9.999E+09, -9.999E+09, -9.999E+09, -9.999E+09, -9.999E+09, -9.999E+09, -9.999E+09, -9.999E+09, -9.999E+09, -9.999E+09, -9.999E+09, 255
2019-092T15:51:16.464,   1,   5,   1,    30,   4,       4096,     12.975,  47481.658,    48.909,    -6.423,     1.126,   188.302, 3, 2.400E+01,  1.50,  78,  4.282E-01,  1.151E-01, -9.999E+09, -9.999E+09, -9.999E+09, -9.999E+09, -9.999E+09, -9.999E+09, -9.999E+09, -9.999E+09, -9.999E+09, -9.999E+09, -9.999E+09, -9.999E+09, -9.999E+09, -9.999E+09, -9.999E+09, -9.999E+09, 255
2019-092T15:51:46.464,   1,   5,   1,    30,   4,       4096,     12.975,  47481.658,    48.907,    -6.422,     1.126,   187.999, 3, 2.400E+01,  1.50,  78,  2.492E-01,  1.149E-01, -9.999E+09, -9.999E+09, -9.999E+09, -9.999E+09, -9.999E+09, -9.999E+09, -9.999E+09, -9.999E+09, -9.999E+09, -9.999E+09, -9.999E+09, -9.999E+09, -9.999E+09, -9.999E+09, -9.999E+09, -9.999E+09, 255
2019-092T15:52:16.464,   1,   5,   1,    30,   4,       4096,     12.975,  47481.658,    48.904,    -6.422,     1.126,   187.697, 3, 2.400E+01,  1.50,  78,  2.632E-01,  1.149E-01, -9.999E+09, -9.999E+09, -9.999E+09, -9.999E+09, -9.999E+09, -9.999E+09, -9.999E+09, -9.999E+09, -9.999E+09, -9.999E+09, -9.999E+09, -9.999E+09, -9.999E+09, -9.999E+09, -9.999E+09, -9.999E+09, 255
2019-092T15:52:46.465,   1,   5,   1,    30,   4,       4096,     12.975,  47481.658,    48.902,    -6.421,     1.126,   187.395, 3, 2.400E+01,  1.50,  78,  2.093E-01,  1.148E-01, -9.999E+09, -9.999E+09, -9.999E+09, -9.999E+09, -9.999E+09, -9.999E+09, -9.999E+09, -9.999E+09, -9.999E+09, -9.999E+09, -9.999E+09, -9.999E+09, -9.999E+09, -9.999E+09, -9.999E+09, -9.999E+09, 255
2019-092T15:53:16.465,   1,   5,   1,    30,   4,       4096,     12.975,  47481.658,    48.899,    -6.421,     1.126,   187.092, 3, 2.400E+01,  1.50,  78,  1.389E-01,  1.148E-01, -9.999E+09, -9.999E+09, -9.999E+09, -9.999E+09, -9.999E+09, -9.999E+09, -9.999E+09, -9.999E+09, -9.999E+09, -9.999E+09, -9.999E+09, -9.999E+09, -9.999E+09, -9.999E+09, -9.999E+09, -9.999E+09, 255
2019-092T15:53:46.465,   1,   5,   1,    30,   4,       4096,     12.975,  47481.658,    48.896,    -6.420,     1.126,   186.790, 3, 2.400E+01,  1.50,  78,  7.619E-02,  1.147E-01, -9.999E+09, -9.999E+09, -9.999E+09, -9.999E+09, -9.999E+09, -9.999E+09, -9.999E+09, -9.999E+09, -9.999E+09, -9.999E+09, -9.999E+09, -9.999E+09, -9.999E+09, -9.999E+09, -9.999E+09, -9.999E+09, 255
2019-092T15:54:16.466,   1,   5,   1,    30,   4,       4096,     12.975,  47481.658,    48.894,    -6.419,     1.126,   186.488, 3, 2.400E+01,  1.50,  78,  1.228E-01,  1.147E-01, -9.999E+09, -9.999E+09, -9.999E+09, -9.999E+09, -9.999E+09, -9.999E+09, -9.999E+09, -9.999E+09, -9.999E+09, -9.999E+09, -9.999E+09, -9.999E+09, -9.999E+09, -9.999E+09, -9.999E+09, -9.999E+09, 255
2019-092T15:54:46.466,   1,   5,   1,    30,   4,       4096,     12.975,  47481.658,    48.891,    -6.419,     1.126,   186.185, 3, 2.400E+01,  1.50,  78,  3.387E-01,  1.150E-01, -9.999E+09, -9.999E+09, -9.999E+09, -9.999E+09, -9.999E+09, -9.999E+09, -9.999E+09, -9.999E+09, -9.999E+09, -9.999E+09, -9.999E+09, -9.999E+09, -9.999E+09, -9.999E+09, -9.999E+09, -9.999E+09, 255
2019-092T15:55:16.467,   1,   5,   1,    30,   4,       4096,     12.975,  47481.658,    48.888,    -6.418,     1.126,   185.883, 3, 2.400E+01,  1.50,  78,  2.090E-01,  1.148E-01, -9.999E+09, -9.999E+09, -9.999E+09, -9.999E+09, -9.999E+09, -9.999E+09, -9.999E+09, -9.999E+09, -9.999E+09, -9.999E+09, -9.999E+09, -9.999E+09, -9.999E+09, -9.999E+09, -9.999E+09, -9.999E+09, 255
2019-092T15:55:46.467,   1,   5,   1,    30,   4,       4096,     12.975,  47481.658,    48.886,    -6.418,     1.126,   185.580, 3, 2.400E+01,  1.50,  78,  1.294E-01,  1.147E-01, -9.999E+09, -9.999E+09, -9.999E+09, -9.999E+09, -9.999E+09, -9.999E+09, -9.999E+09, -9.999E+09, -9.999E+09, -9.999E+09, -9.999E+09, -9.999E+09, -9.999E+09, -9.999E+09, -9.999E+09, -9.999E+09, 255
2019-092T15:56:16.467,   1,   5,   1,    30,   4,       4096,     12.975,  47481.658,    48.883,    -6.417,     1.126,   185.278, 3, 2.400E+01,  1.50,  78,  8.886E-02,  1.147E-01, -9.999E+09, -9.999E+09, -9.999E+09, -9.999E+09, -9.999E+09, -9.999E+09, -9.999E+09, -9.999E+09, -9.999E+09, -9.999E+09, -9.999E+09, -9.999E+09, -9.999E+09, -9.999E+09, -9.999E+09, -9.999E+09, 255
2019-092T15:56:46.468,   1,   5,   1,    30,   4,       4096,     12.975,  47481.658,    48.880,    -6.416,     1.126,   184.976, 3, 2.400E+01,  1.50,  78,  7.963E-02,  1.147E-01, -9.999E+09, -9.999E+09, -9.999E+09, -9.999E+09, -9.999E+09, -9.999E+09, -9.999E+09, -9.999E+09, -9.999E+09, -9.999E+09, -9.999E+09, -9.999E+09, -9.999E+09, -9.999E+09, -9.999E+09, -9.999E+09, 255
2019-092T15:57:16.468,   1,   5,   1,    30,   4,       4096,     12.975,  47481.658,    48.878,    -6.416,     1.126,   184.673, 3, 2.400E+01,  1.50,  78,  9.190E-02,  1.147E-01, -9.999E+09, -9.999E+09, -9.999E+09, -9.999E+09, -9.999E+09, -9.999E+09, -9.999E+09, -9.999E+09, -9.999E+09, -9.999E+09, -9.999E+09, -9.999E+09, -9.999E+09, -9.999E+09, -9.999E+09, -9.999E+09, 255
2019-092T15:57:46.468,   1,   5,   1,    30,   4,       4096,     12.975,  47481.658,    48.875,    -6.415,     1.126,   184.371, 3, 2.400E+01,  1.50,  78,  1.028E-01,  1.147E-01, -9.999E+09, -9.999E+09, -9.999E+09, -9.999E+09, -9.999E+09, -9.999E+09, -9.999E+09, -9.999E+09, -9.999E+09, -9.999E+09, -9.999E+09, -9.999E+09, -9.999E+09, -9.999E+09, -9.999E+09, -9.999E+09, 255
2019-092T15:58:16.469,   1,   5,   1,    30,   4,       4096,     12.975,  47481.658,    48.872,    -6.415,     1.126,   184.068, 3, 2.400E+01,  1.50,  78,  1.006E-01,  1.147E-01, -9.999E+09, -9.999E+09, -9.999E+09, -9.999E+09, -9.999E+09, -9.999E+09, -9.999E+09, -9.999E+09, -9.999E+09, -9.999E+09, -9.999E+09, -9.999E+09, -9.999E+09, -9.999E+09, -9.999E+09, -9.999E+09, 255
2019-092T15:58:46.469,   1,   5,   1,    30,   4,       4096,     12.975,  47481.658,    48.870,    -6.414,     1.126,   183.766, 3, 2.400E+01,  1.50,  78,  1.303E-01,  1.147E-01, -9.999E+09, -9.999E+09, -9.999E+09, -9.999E+09, -9.999E+09, -9.999E+09, -9.999E+09, -9.999E+09, -9.999E+09, -9.999E+09, -9.999E+09, -9.999E+09, -9.999E+09, -9.999E+09, -9.999E+09, -9.999E+09, 255
2019-092T15:59:16.469,   1,   5,   1,    30,   4,       4096,     12.975,  47481.658,    48.867,    -6.413,     1.126,   183.464, 3, 2.400E+01,  1.50,  78,  1.175E-01,  1.147E-01, -9.999E+09, -9.999E+09, -9.999E+09, -9.999E+09, -9.999E+09, -9.999E+09, -9.999E+09, -9.999E+09, -9.999E+09, -9.999E+09, -9.999E+09, -9.999E+09, -9.999E+09, -9.999E+09, -9.999E+09, -9.999E+09, 255
2019-092T15:59:46.470,   1,   5,   1,    30,   4,       4096,     12.975,  47481.658,    48.865,    -6.413,     1.126,   183.161, 3, 2.400E+01,  1.50,  78,  1.180E-01,  1.147E-01, -9.999E+09, -9.999E+09, -9.999E+09, -9.999E+09, -9.999E+09, -9.999E+09, -9.999E+09, -9.999E+09, -9.999E+09, -9.999E+09, -9.999E+09, -9.999E+09, -9.999E+09, -9.999E+09, -9.999E+09, -9.999E+09, 255
2019-092T16:00:16.470,   1,   5,   1,    30,   4,       4096,     12.975,  47481.658,    48.862,    -6.412,     1.126,   182.859, 3, 2.400E+01,  1.50,  78,  1.237E-01,  1.147E-01, -9.999E+09, -9.999E+09, -9.999E+09, -9.999E+09, -9.999E+09, -9.999E+09, -9.999E+09, -9.999E+09, -9.999E+09, -9.999E+09, -9.999E+09, -9.999E+09, -9.999E+09, -9.999E+09, -9.999E+09, -9.999E+09, 255
2019-092T16:00:46.470,   1,   5,   1,    30,   4,       4096,     12.975,  47481.658,    48.859,    -6.412,     1.126,   182.556, 3, 2.400E+01,  1.50,  78,  4.187E-01,  1.152E-01, -9.999E+09, -9.999E+09, -9.999E+09, -9.999E+09, -9.999E+09, -9.999E+09, -9.999E+09, -9.999E+09, -9.999E+09, -9.999E+09, -9.999E+09, -9.999E+09, -9.999E+09, -9.999E+09, -9.999E+09, -9.999E+09, 255
2019-092T16:01:16.471,   1,   5,   1,    30,   4,       4096,     12.975,  47481.658,    48.857,    -6.411,     1.126,   182.254, 3, 2.400E+01,  1.50,  78,  3.107E-01,  1.150E-01, -9.999E+09, -9.999E+09, -9.999E+09, -9.999E+09, -9.999E+09, -9.999E+09, -9.999E+09, -9.999E+09, -9.999E+09, -9.999E+09, -9.999E+09, -9.999E+09, -9.999E+09, -9.999E+09, -9.999E+09, -9.999E+09, 255
2019-092T16:01:46.471,   1,   5,   1,    30,   4,       4096,     12.975,  47481.658,    48.854,    -6.410,     1.126,   181.952, 3, 2.400E+01,  1.50,  78,  3.170E-01,  1.150E-01, -9.999E+09, -9.999E+09, -9.999E+09, -9.999E+09, -9.999E+09, -9.999E+09, -9.999E+09, -9.999E+09, -9.999E+09, -9.999E+09, -9.999E+09, -9.999E+09, -9.999E+09, -9.999E+09, -9.999E+09, -9.999E+09, 255
2019-092T16:02:16.471,   1,   5,   1,    30,   4,       4096,     12.975,  47481.658,    48.851,    -6.410,     1.126,   181.649, 3, 2.400E+01,  1.50,  78,  2.959E-01,  1.150E-01, -9.999E+09, -9.999E+09, -9.999E+09, -9.999E+09, -9.999E+09, -9.999E+09, -9.999E+09, -9.999E+09, -9.999E+09, -9.999E+09, -9.999E+09, -9.999E+09, -9.999E+09, -9.999E+09, -9.999E+09, -9.999E+09, 255
2019-092T16:02:46.472,   1,   5,   1,    30,   4,       4096,     12.975,  47481.658,    48.849,    -6.409,     1.126,   181.347, 3, 2.400E+01,  1.50,  78,  1.942E-01,  1.148E-01, -9.999E+09, -9.999E+09, -9.999E+09, -9.999E+09, -9.999E+09, -9.999E+09, -9.999E+09, -9.999E+09, -9.999E+09, -9.999E+09, -9.999E+09, -9.999E+09, -9.999E+09, -9.999E+09, -9.999E+09, -9.999E+09, 255
2019-092T16:03:16.472,   1,   5,   1,    30,   4,       4096,     12.975,  47481.658,    48.846,    -6.408,     1.126,   181.045, 3, 2.400E+01,  1.50,  78,  1.134E+00,  1.164E-01, -9.999E+09, -9.999E+09, -9.999E+09, -9.999E+09, -9.999E+09, -9.999E+09, -9.999E+09, -9.999E+09, -9.999E+09, -9.999E+09, -9.999E+09, -9.999E+09, -9.999E+09, -9.999E+09, -9.999E+09, -9.999E+09, 255
2019-092T16:03:46.472,   1,   5,   1,    30,   4,       4096,     12.975,  47481.658,    48.843,    -6.408,     1.126,   180.742, 3, 2.400E+01,  1.50,  78,  1.067E+00,  1.164E-01, -9.999E+09, -9.999E+09, -9.999E+09, -9.999E+09, -9.999E+09, -9.999E+09, -9.999E+09, -9.999E+09, -9.999E+09, -9.999E+09, -9.999E+09, -9.999E+09, -9.999E+09, -9.999E+09, -9.999E+09, -9.999E+09, 255
2019-092T16:04:16.473,   1,   5,   1,    30,   4,       4096,     12.975,  47481.658,    48.841,    -6.407,     1.126,   180.440, 3, 2.400E+01,  1.50,  78,  8.811E-01,  1.160E-01, -9.999E+09, -9.999E+09, -9.999E+09, -9.999E+09, -9.999E+09, -9.999E+09, -9.999E+09, -9.999E+09, -9.999E+09, -9.999E+09, -9.999E+09, -9.999E+09, -9.999E+09, -9.999E+09, -9.999E+09, -9.999E+09, 255
2019-092T16:04:46.473,   1,   5,   1,    30,   4,       4096,     12.975,  47481.658,    48.838,    -6.407,     1.126,   180.137, 3, 2.400E+01,  1.50,  78,  8.828E-01,  1.161E-01, -9.999E+09, -9.999E+09, -9.999E+09, -9.999E+09, -9.999E+09, -9.999E+09, -9.999E+09, -9.999E+09, -9.999E+09, -9.999E+09, -9.999E+09, -9.999E+09, -9.999E+09, -9.999E+09, -9.999E+09, -9.999E+09, 255
2019-092T16:05:16.474,   1,   5,   1,    30,   4,       4096,     12.975,  47481.658,    48.835,    -6.406,     1.126,   179.835, 3, 2.400E+01,  1.50,  78,  9.943E-01,  1.162E-01, -9.999E+09, -9.999E+09, -9.999E+09, -9.999E+09, -9.999E+09, -9.999E+09, -9.999E+09, -9.999E+09, -9.999E+09, -9.999E+09, -9.999E+09, -9.999E+09, -9.999E+09, -9.999E+09, -9.999E+09, -9.999E+09, 255
2019-092T16:05:46.474,   1,   5,   1,    30,   4,       4096,     12.975,  47481.658,    48.833,    -6.405,     1.126,   179.533, 3, 2.400E+01,  1.50,  78,  7.521E-01,  1.157E-01, -9.999E+09, -9.999E+09, -9.999E+09, -9.999E+09, -9.999E+09, -9.999E+09, -9.999E+09, -9.999E+09, -9.999E+09, -9.999E+09, -9.999E+09, -9.999E+09, -9.999E+09, -9.999E+09, -9.999E+09, -9.999E+09, 255
2019-092T16:06:16.474,   1,   5,   1,    30,   4,       4096,     12.975,  47481.658,    48.830,    -6.405,     1.126,   179.230, 3, 2.400E+01,  1.50,  78,  6.225E-01,  1.155E-01, -9.999E+09, -9.999E+09, -9.999E+09, -9.999E+09, -9.999E+09, -9.999E+09, -9.999E+09, -9.999E+09, -9.999E+09, -9.999E+09, -9.999E+09, -9.999E+09, -9.999E+09, -9.999E+09, -9.999E+09, -9.999E+09, 255
2019-092T16:06:46.475,   1,   5,   1,    30,   4,       4096,     12.975,  47481.658,    48.827,    -6.404,     1.126,   178.928, 3, 2.400E+01,  1.50,  78,  5.829E-01,  1.154E-01, -9.999E+09, -9.999E+09, -9.999E+09, -9.999E+09, -9.999E+09, -9.999E+09, -9.999E+09, -9.999E+09, -9.999E+09, -9.999E+09, -9.999E+09, -9.999E+09, -9.999E+09, -9.999E+09, -9.999E+09, -9.999E+09, 255
2019-092T16:07:16.475,   1,   5,   1,    30,   4,       4096,     12.975,  47481.658,    48.825,    -6.404,     1.126,   178.625, 3, 2.400E+01,  1.50,  78,  5.322E-01,  1.154E-01, -9.999E+09, -9.999E+09, -9.999E+09, -9.999E+09, -9.999E+09, -9.999E+09, -9.999E+09, -9.999E+09, -9.999E+09, -9.999E+09, -9.999E+09, -9.999E+09, -9.999E+09, -9.999E+09, -9.999E+09, -9.999E+09, 255
2019-092T16:07:46.475,   1,   5,   1,    30,   4,       4096,     12.975,  47481.658,    48.822,    -6.403,     1.126,   178.323, 3, 2.400E+01,  1.50,  78,  4.860E-01,  1.153E-01, -9.999E+09, -9.999E+09, -9.999E+09, -9.999E+09, -9.999E+09, -9.999E+09, -9.999E+09, -9.999E+09, -9.999E+09, -9.999E+09, -9.999E+09, -9.999E+09, -9.999E+09, -9.999E+09, -9.999E+09, -9.999E+09, 255
2019-092T16:08:16.476,   1,   5,   1,    30,   4,       4096,     12.975,  47481.658,    48.820,    -6.402,     1.126,   178.021, 3, 2.400E+01,  1.50,  78,  4.311E-01,  1.152E-01, -9.999E+09, -9.999E+09, -9.999E+09, -9.999E+09, -9.999E+09, -9.999E+09, -9.999E+09, -9.999E+09, -9.999E+09, -9.999E+09, -9.999E+09, -9.999E+09, -9.999E+09, -9.999E+09, -9.999E+09, -9.999E+09, 255
2019-092T16:08:46.476,   1,   5,   1,    30,   4,       4096,     12.975,  47481.658,    48.817,    -6.402,     1.126,   177.718, 3, 2.400E+01,  1.50,  78,  4.363E-01,  1.152E-01, -9.999E+09, -9.999E+09, -9.999E+09, -9.999E+09, -9.999E+09, -9.999E+09, -9.999E+09, -9.999E+09, -9.999E+09, -9.999E+09, -9.999E+09, -9.999E+09, -9.999E+09, -9.999E+09, -9.999E+09, -9.999E+09, 255
2019-092T16:09:16.476,   1,   5,   1,    30,   4,       4096,     12.975,  47481.658,    48.814,    -6.401,     1.126,   177.416, 3, 2.400E+01,  1.50,  78,  3.646E-01,  1.151E-01, -9.999E+09, -9.999E+09, -9.999E+09, -9.999E+09, -9.999E+09, -9.999E+09, -9.999E+09, -9.999E+09, -9.999E+09, -9.999E+09, -9.999E+09, -9.999E+09, -9.999E+09, -9.999E+09, -9.999E+09, -9.999E+09, 255
2019-092T16:09:46.477,   1,   5,   1,    30,   4,       4096,     12.975,  47481.658,    48.812,    -6.401,     1.126,   177.113, 3, 2.400E+01,  1.50,  78,  3.825E-01,  1.151E-01, -9.999E+09, -9.999E+09, -9.999E+09, -9.999E+09, -9.999E+09, -9.999E+09, -9.999E+09, -9.999E+09, -9.999E+09, -9.999E+09, -9.999E+09, -9.999E+09, -9.999E+09, -9.999E+09, -9.999E+09, -9.999E+09, 255